Find OneWeb SL0042

NORAD ID: 45441 Int'l Des: 2020-020 Owner: ONEWEB Country: UK Constellation: oneweb operational
LEOCIRCULARPOLARONEWEB_TYPE

Live Position

Loading 3D Globe...

About OneWeb SL0042

Description loading...

Upcoming Passes

Passes for default location (London). Set your location on the main map for personalized predictions.

Altitude History

Loading altitude history...

Two-Line Element Set

1 45441U 20020T 26125.16773520 .00000176 00000-0 45945-3 0 9993
2 45441 87.8933 29.6107 0001887 80.7571 279.3771 13.11420215297021
Epoch: May 5, 2026 • Age: 6 hours

Current Status

Altitude 1227.8 km
Velocity 7.25 km/s
Sub-Earth Point 65.05°N, 169.79°W
Launch Date Mar 21, 2020
Age 6.1 years
Type internet

Technical Details

Classification Payload
Mass 148.00 kg
Dry Mass 140.00 kg
Total Mass 148.00 kg
Length 1.30 m
Diameter 1.00 m
Span 5.00 m
Shape Trapezoid+2 pan
Manufacturer ONEWUS
Bus Type ARROW
Phase Status In Orbit
Owner/State ONEWEB/UK

Most Searched